SQ2CET-13 Weather Reports


time (UTC)temp
C
wind
direction
speed
KPH
gust
KPH
rain 1hr
cm
rain 24hr
cm
rain mn
cm
humidity
%
barometer
mb
20260831160113 22 221 1.6 12.9 0.00 0.00 0.00 58 1012.5
20260831155033 22 233 4.8 9.7 0.00 0.00 0.00 60 1012.4
20260831154057 22 232 4.8 14.5 0.00 0.00 0.00 60 1012.5
20260831153121 21 234 3.2 9.7 0.00 0.00 0.00 62 1012.6
20260831152041 21 239 4.8 11.3 0.00 0.00 0.00 62 1012.7
20260831151125 21 225 4.8 11.3 0.00 0.00 0.00 61 1012.6
20260831150027 21 218 4.8 12.9 0.00 0.00 0.00 61 1012.6
20260831145111 22 226 4.8 9.7 0.00 0.00 0.00 61 1012.6
20260831144114 21 236 4.8 11.3 0.00 0.00 0.00 63 1012.7
20260831143033 21 240 6.4 12.9 0.00 0.00 0.00 63 1012.8
20260831142059 21 247 6.4 14.5 0.00 0.00 0.00 63 1012.8
20260831141121 21 240 9.7 17.7 0.00 0.00 0.00 63 1012.8
20260831140041 21 271 3.2 12.9 0.00 0.00 0.00 64 1012.7
20260831135105 21 232 6.4 12.9 0.00 0.00 0.00 65 1012.9
20260831134024 22 262 3.2 11.3 0.00 0.00 0.00 63 1013.0
20260831133049 22 249 4.8 9.7 0.00 0.00 0.00 64 1013.0
20260831132113 21 241 8.0 17.7 0.00 0.00 0.00 63 1013.0
20260831131033 22 250 6.4 14.5 0.00 0.00 0.00 62 1013.1
20260831130058 22 236 6.4 19.3 0.00 0.00 0.00 61 1013.0
20260831125126 22 224 8.0 17.7 0.00 0.00 0.00 61 1013.1
20260831124046 21 202 3.2 11.3 0.00 0.00 0.00 62 1013.0
20260831123043 21 216 4.8 14.5 0.00 0.00 0.00 63 1013.1
20260831122107 21 234 6.4 11.3 0.00 0.00 0.00 65 1013.2
20260831121025 21 237 6.4 12.9 0.00 0.00 0.00 64 1013.2
20260831120129 21 245 6.4 16.1 0.00 0.00 0.00 64 1013.2
20260831115113 21 209 6.4 16.1 0.00 0.00 0.00 65 1013.3
20260831114032 21 226 3.2 12.9 0.00 0.00 0.00 67 1013.3
20260831113057 20 224 8.0 19.3 0.00 0.00 0.00 69 1013.4
20260831112120 21 211 1.6 12.9 0.00 0.00 0.00 68 1013.1
20260831111043 20 227 3.2 11.3 0.00 0.00 0.00 69 1013.3
20260831110105 20 235 4.8 14.5 0.00 0.00 0.00 70 1013.3
20260831105046 20 224 4.8 12.9 0.00 0.00 0.00 69 1013.3
20260831104049 21 187 6.4 17.7 0.00 0.00 0.00 68 1013.4
20260831103113 20 249 3.2 11.3 0.00 0.00 0.00 70 1013.3
20260831102033 20 210 6.4 12.9 0.00 0.00 0.00 71 1013.5
20260831101057 20 222 6.4 16.1 0.00 0.00 0.00 71 1013.5
20260831100018 20 228 6.4 12.9 0.00 0.00 0.00 72 1013.4
20260831095035 20 236 1.6 8.0 0.00 0.00 0.00 72 1013.5
20260831094057 20 227 4.8 9.7 0.00 0.00 0.00 71 1013.7
20260831093038 20 236 3.2 9.7 0.00 0.00 0.00 72 1013.5
20260831092042 20 235 3.2 11.3 0.00 0.00 0.00 72 1013.7
20260831091107 20 233 4.8 8.0 0.00 0.00 0.00 72 1013.6
20260831090025 19 234 4.8 14.5 0.00 0.00 0.00 71 1013.7
20260831085050 20 241 3.2 11.3 0.00 0.00 0.00 71 1013.7
20260831084112 20 246 3.2 14.5 0.00 0.00 0.00 70 1013.7
20260831083053 20 224 4.8 14.5 0.00 0.00 0.00 69 1013.7
20260831082057 20 201 3.2 6.4 0.00 0.00 0.00 68 1013.7
20260831081114 19 215 3.2 9.7 0.00 0.00 0.00 71 1013.7
20260831080034 19 211 3.2 9.7 0.00 0.00 0.00 70 1013.6
20260831075058 18 256 1.6 8.0 0.00 0.00 0.00 71 1013.8
20260831074017 18 244 3.2 11.3 0.00 0.00 0.00 71 1013.8
20260831073041 18 222 3.2 11.3 0.00 0.00 0.00 71 1013.8
20260831072106 18 230 4.8 14.5 0.00 0.00 0.00 72 1013.8
20260831071025 18 216 8.0 16.1 0.00 0.00 0.00 70 1013.8
20260831070042 19 232 8.0 17.7 0.00 0.00 0.00 71 1013.6
20260831065107 18 220 8.0 14.5 0.00 0.00 0.00 72 1013.6
20260831064024 18 225 8.0 11.3 0.00 0.00 0.00 74 1013.6
20260831063037 18 223 8.0 14.5 0.00 0.00 0.00 76 1013.7
20260831062119 17 226 9.7 16.1 0.00 0.00 0.00 78 1013.8
20260831061018 18 246 4.8 12.9 0.00 0.00 0.00 78 1013.8
20260831060042 17 225 9.7 16.1 0.00 0.00 0.00 79 1013.6
20260831055107 17 238 3.2 9.7 0.00 0.00 0.00 79 1013.5
20260831054047 17 226 6.4 12.9 0.00 0.00 0.00 80 1013.5
20260831053111 17 210 1.6 4.8 0.00 0.00 0.00 81 1013.5
20260831052114 16 232 4.8 8.0 0.00 0.00 0.00 84 1013.6
20260831051036 16 237 3.2 9.7 0.00 0.00 0.00 84 1013.7
20260831050057 16 221 3.2 8.0 0.00 0.00 0.00 85 1013.5
20260831045018 16 239 1.6 4.8 0.00 0.00 0.00 86 1013.5
20260831044047 16 213 3.2 8.0 0.00 0.00 0.00 86 1013.5
20260831043058 16 213 3.2 8.0 0.00 0.00 0.00 86 1013.6
20260831042018 16 224 3.2 6.4 0.00 0.00 0.00 87 1013.5
20260831041104 16 210 3.2 9.7 0.00 0.00 0.00 87 1013.6
20260831040106 16 201 3.2 8.0 0.00 0.00 0.00 86 1013.6
20260831035027 16 212 3.2 8.0 0.00 0.00 0.00 86 1013.6
20260831034130 16 189 1.6 6.4 0.00 0.00 0.00 86 1013.6
20260831033106 16 208 1.6 6.4 0.00 0.00 0.00 86 1013.5
20260831032023 16 173 4.8 8.0 0.00 0.00 0.00 86 1013.7
20260831031102 16 178 3.2 8.0 0.00 0.00 0.00 85 1013.5
20260831030106 16 177 1.6 8.0 0.00 0.00 0.00 85 1013.6
20260831025028 16 195 3.2 8.0 0.00 0.00 0.00 85 1013.6
20260831024050 16 219 3.2 9.7 0.00 0.00 0.00 84 1013.6
20260831023114 16 211 4.8 8.0 0.00 0.00 0.00 84 1013.4
20260831022028 16 230 4.8 9.7 0.00 0.00 0.00 84 1013.6
20260831021045 16 252 4.8 9.7 0.00 0.00 0.00 83 1013.5
20260831020106 16 246 3.2 9.7 0.00 0.00 0.00 83 1013.4
20260831015029 16 244 3.2 8.0 0.00 0.00 0.00 83 1013.4
20260831014044 16 247 6.4 11.3 0.00 0.00 0.00 83 1013.4
20260831013107 17 239 6.4 11.3 0.00 0.00 0.00 82 1013.3
20260831012026 17 254 4.8 9.7 0.00 0.00 0.00 81 1013.3
20260831011049 17 241 6.4 19.3 0.00 0.00 0.00 80 1013.3
20260831010113 17 240 6.4 11.3 0.00 0.00 0.00 80 1013.4
20260831005033 17 254 6.4 14.5 0.00 0.00 0.00 80 1013.4
20260831004117 17 240 8.0 16.1 0.00 0.00 0.00 80 1013.5
20260831003038 17 239 6.4 12.9 0.00 0.00 0.00 80 1013.4
20260831002042 17 246 4.8 12.9 0.00 0.00 0.00 80 1013.3
20260831001126 17 226 8.0 11.3 0.00 0.00 0.00 80 1013.4
20260831000026 17 234 4.8 12.9 0.00 0.00 0.00 79 1013.4
20260830235049 17 245 4.8 14.5 0.00 0.00 0.00 79 1013.4
20260830234113 17 228 8.0 19.3 0.00 0.00 0.00 78 1013.5
20260830233033 17 242 4.8 12.9 0.00 0.00 0.00 78 1013.3
20260830232117 17 238 6.4 12.9 0.00 0.00 0.00 78 1013.2
20260830231017 18 238 6.4 12.9 0.00 0.00 0.00 78 1013.3
20260830230042 18 236 9.7 14.5 0.00 0.00 0.00 77 1013.3
20260830225107 18 233 9.7 17.7 0.00 0.00 0.00 77 1013.2
20260830224025 18 238 4.8 11.3 0.00 0.00 0.00 79 1013.1
20260830223111 18 243 3.2 11.3 0.00 0.00 0.00 78 1013.1
20260830222058 18 236 6.4 16.1 0.00 0.00 0.00 77 1013.0
20260830221020 18 240 6.4 17.7 0.00 0.00 0.00 76 1013.0
20260830220042 19 234 11.3 20.9 0.00 0.00 0.00 74 1013.0
20260830215106 18 239 6.4 22.5 0.00 0.00 0.00 76 1012.8
20260830214025 18 231 8.0 14.5 0.00 0.00 0.00 77 1012.8
20260830213111 18 229 4.8 11.3 0.00 0.00 0.00 79 1012.6
20260830212106 18 217 1.6 8.0 0.00 0.00 0.00 79 1012.6
20260830211025 18 222 3.2 8.0 0.00 0.00 0.00 77 1012.6
20260830210049 19 217 4.8 11.3 0.00 0.00 0.00 77 1012.6
20260830205113 19 211 4.8 11.3 0.00 0.00 0.00 77 1012.5
20260830204034 19 205 4.8 9.7 0.00 0.00 0.00 77 1012.6
20260830203058 19 224 3.2 9.7 0.00 0.00 0.00 77 1012.6
20260830202019 19 223 3.2 11.3 0.00 0.00 0.00 77 1012.4
20260830201041 20 217 4.8 9.7 0.00 0.00 0.00 76 1012.4
20260830200105 19 232 4.8 9.7 0.00 0.00 0.00 76 1012.4
20260830195146 19 186 1.6 6.4 0.00 0.00 0.00 77 1012.4
20260830194049 20 195 1.6 4.8 0.00 0.00 0.00 76 1012.4
20260830193113 20 202 3.2 9.7 0.00 0.00 0.00 76 1012.5
20260830192034 20 228 3.2 6.4 0.00 0.00 0.00 76 1012.4
20260830191057 19 224 3.2 8.0 0.00 0.00 0.00 77 1012.4
20260830190017 20 273 1.6 6.4 0.00 0.00 0.00 77 1012.3
20260830185042 20 254 3.2 9.7 0.00 0.00 0.00 75 1012.2
20260830184105 20 248 4.8 11.3 0.00 0.00 0.00 75 1012.2
20260830183026 20 198 6.4 12.9 0.00 0.00 0.00 74 1012.0
20260830182050 20 225 6.4 19.3 0.00 0.00 0.00 73 1011.8
20260830181113 20 220 8.0 17.7 0.00 0.00 0.00 73 1011.8
20260830180033 20 205 4.8 14.5 0.00 0.00 0.00 73 1011.6
20260830175057 20 213 4.8 11.3 0.00 0.00 0.00 72 1011.5
20260830174058 20 214 8.0 12.9 0.00 0.00 0.00 72 1011.3
20260830173041 20 212 3.2 8.0 0.00 0.00 0.00 71 1011.3
20260830172057 21 208 4.8 16.1 0.00 0.00 0.00 70 1011.3
20260830171039 21 206 6.4 20.9 0.00 0.00 0.00 70 1011.3
20260830170042 21 208 6.4 14.5 0.00 0.00 0.00 68 1011.2
20260830165105 21 193 4.8 14.5 0.00 0.00 0.00 67 1011.3
20260830164046 21 227 6.4 20.9 0.00 0.00 0.00 66 1011.3
20260830163049 22 190 4.8 17.7 0.00 0.00 0.00 64 1011.3
20260830162113 22 212 8.0 20.9 0.00 0.00 0.00 62 1011.2
20260830161054 23 221 9.7 29.0 0.00 0.00 0.00 58 1011.2